7 * 24
多渠道服务支持
STARLINK-37716(NORAD编号69213)是SpaceX星链(Starlink)互联网卫星星座的一颗成员卫星。星链项目旨在构建全球覆盖的低轨太空互联网通信系统,为全球提供低成本、高性能的宽带互联网接入服务。该卫星运行在近地轨道,是SpaceX批量发射部署的星链卫星之一,承担着为地面用户提供宽带网络信号中继传输的任务,助力实现全球偏远地区及网络覆盖薄弱区域的互联网接入,推动星链星座全球网络覆盖的构建。
美国
(US)
| 数据来源 | 国际轨道数据 |
| 星历时间: | 2026-09-10T21:37:01+0800 22小时前 查看轨道信息 |
| 半长轴: | 6843.682km |
| 偏心率: | 0.0001503 |
| 轨道倾角: | 97.284° |
| 近地点辐角 | 128.077° |
| 升交点赤经 | 269.734° |
| 平近点角 | 232.061° |
| 近地点: | 464.516km |
| 远地点: | 466.574km |
| 周期: | 93.906分钟 |
| 每日圈数: | 15.334447 |